Flag for Sweden Weather past 2 weeks in Malmö, Sweden

Now
57 °F

Scattered clouds.


Feels Like: 53 °F
Forecast: 57 / 65 °F
Wind: 18 mph from West

Location: Malmo / Sturup

Current Time: Aug 21, 2014 at 11:07:59 AM

Latest Report: Aug 21, 2014 at 10:20 AM


Visibility: N/A

Pressure: 29.86 "Hg

Humidity: 67%

Dew point: 46 °F

Location of MalmöLocation

Historic Weather in Malmö — Graph

°F

Malmö temperature yesterday

Maximum temperature yesterday: 64 °F (at 2:20 PM)
Minimum temperature yesterday: 54 °F (at 4:50 AM)
Average temperature yesterday: 58 °F

Past Weeks' High & Low Weather Summary

 TemperatureHumidityPressure
High75 °F (Aug 6, 4:50 PM)100% (Aug 7, 12:20 AM)30.04 "Hg (Aug 7, 12:20 AM)
Low50 °F (Aug 10, 3:50 AM)38% (Aug 6, 6:20 PM)29.39 "Hg (Aug 18, 11:50 AM)
Average62 °F76%29.75 "Hg
* Reported Aug 6 9:20 AM — Aug 21 9:50 AM, Malmö, Weather by CustomWeather, © 2014

Note: Actual official high and low records may vary slightly from our data, if they occured in-between our weather recording intervals... More about our weather records

Advertising

Malmö weather history for previous 24 hours

 ConditionsComfort  
Time TempWeatherWind HumidityBarometerVisibility
9:50 AM
Aug 21
59 °FPassing clouds.18 mph68%29.86 "HgN/A
9:20 AM57 °FPassing clouds.17 mph72%29.86 "HgN/A
8:50 AM57 °FPassing clouds.15 mph72%29.86 "HgN/A
8:20 AM55 °FPassing clouds.15 mph77%29.83 "HgN/A
7:50 AM55 °FPassing clouds.14 mph77%29.83 "HgN/A
7:20 AM54 °FSunny.12 mph82%29.83 "Hg10 mi
6:50 AM52 °FSunny.9 mph88%29.83 "Hg10 mi
6:20 AM52 °FClear.7 mph88%29.83 "Hg10 mi
5:50 AM52 °FClear.10 mph88%29.83 "Hg10 mi
5:20 AM52 °FClear.9 mph82%29.83 "Hg10 mi
4:50 AM52 °FClear.9 mph88%29.83 "Hg10 mi
4:20 AM52 °FClear.9 mph88%29.83 "Hg10 mi
3:50 AM52 °FClear.9 mph88%29.83 "Hg10 mi
3:20 AM54 °FClear.10 mph82%29.83 "Hg10 mi
2:50 AM54 °FClear.9 mph77%29.83 "Hg10 mi
2:20 AM54 °FClear.9 mph82%29.83 "Hg10 mi
1:50 AM54 °FClear.12 mph82%29.83 "Hg10 mi
1:20 AM54 °FClear.12 mph77%29.83 "Hg10 mi
12:50 AM55 °FClear.13 mph77%29.83 "Hg10 mi
12:20 AM55 °FClear.13 mph77%29.80 "Hg10 mi
11:50 PM
Aug 20
55 °FClear.13 mph77%29.80 "Hg10 mi
11:20 PM55 °FClear.12 mph77%29.80 "Hg10 mi
10:50 PM55 °FClear.12 mph77%29.80 "Hg10 mi
10:20 PM57 °FClear.14 mph67%29.80 "Hg10 mi
9:50 PM57 °FPassing clouds.15 mph67%29.80 "HgN/A
9:20 PM57 °FScattered clouds.10 mph67%29.80 "HgN/A
8:50 PM59 °FScattered clouds.13 mph68%29.77 "HgN/A
8:20 PM59 °FScattered showers. Passing clouds.12 mph63%29.77 "HgN/A
7:50 PM59 °FPassing clouds.12 mph63%29.77 "HgN/A
7:20 PM61 °FSunny.14 mph59%29.77 "Hg10 mi
6:50 PM63 °FPassing clouds.18 mph56%29.74 "HgN/A
6:20 PM63 °FPassing clouds.16 mph56%29.74 "HgN/A
5:50 PM63 °FPassing clouds.21 mph52%29.74 "HgN/A
5:20 PM63 °FPassing clouds.20 mph56%29.74 "HgN/A
4:50 PM63 °FPassing clouds.23 mph56%29.74 "HgN/A
4:20 PM63 °FScattered clouds.23 mph59%29.74 "HgN/A
3:50 PM63 °FScattered clouds.24 mph59%29.71 "HgN/A
3:20 PM64 °FScattered clouds.23 mph60%29.71 "HgN/A
2:50 PM63 °FScattered clouds.23 mph52%29.71 "HgN/A
2:20 PM64 °FBroken clouds.24 mph49%29.71 "HgN/A
1:50 PM63 °FBroken clouds.24 mph56%29.71 "HgN/A
1:20 PM63 °FScattered clouds.23 mph59%29.68 "HgN/A
12:50 PM63 °FPartly sunny.24 mph64%29.68 "HgN/A
12:20 PM61 °FScattered clouds.22 mph63%29.68 "HgN/A
11:50 AM59 °FBroken clouds.22 mph68%29.68 "HgN/A
11:20 AM61 °FBroken clouds.22 mph68%29.68 "HgN/A
Weather by CustomWeather, © 2014

See weather overviewHow to use our weather pages